Location: Andershausen
(51.8462°N, 9.8595°E)
Time: 13:05:35
(UTC+00:00)

USA 281 - Visible Passes

Search period start: 14 February 2026 00:00
Search period end: 24 February 2026 00:00
Orbit: 1079 x 1080 km, 106.0° (Epoch: 5 January)

Date Brightness Start Highest point End Pass type
(mag) Time Alt. Az. Time Alt. Az. Time Alt. Az.
14 Feb 5.2 18:34:22 10° NE 18:36:48 12° NNE 18:39:15 10° N visible
14 Feb 4.8 20:20:52 23° NNE 20:20:52 23° NNE 20:24:30 10° NNW visible
14 Feb 5.3 22:07:43 21° NNW 22:07:43 21° NNW 22:09:37 10° NNW visible
15 Feb 5.3 17:46:59 10° NNE 17:48:25 11° N 17:49:50 10° NNW visible
15 Feb 4.9 19:30:01 17° NNE 19:30:34 17° NNE 19:34:27 10° N visible
15 Feb 4.9 21:16:52 26° N 21:16:52 26° N 21:19:45 10° NNW visible
15 Feb 5.7 23:03:44 14° NW 23:03:44 14° NW 23:04:29 10° NNW visible
16 Feb 5.2 18:39:35 10° NE 18:42:02 12° NNE 18:44:28 10° N visible
16 Feb 4.7 20:26:01 24° NNE 20:26:01 24° NNE 20:29:44 10° NNW visible
16 Feb 5.2 22:12:52 21° NNW 22:12:52 21° NNW 22:14:51 10° NNW visible
17 Feb 5.3 17:52:12 10° NNE 17:53:38 11° N 17:55:04 10° NNW visible
17 Feb 4.9 19:35:10 17° NNE 19:35:47 17° NNE 19:39:42 10° N visible
17 Feb 4.8 21:22:01 26° N 21:22:01 26° N 21:24:59 10° NNW visible
17 Feb 5.6 23:08:53 14° NW 23:08:53 14° NW 23:09:42 10° NNW visible
18 Feb 5.2 18:44:48 10° NE 18:47:15 12° NNE 18:49:42 10° N visible
18 Feb 4.7 20:31:10 24° NNE 20:31:10 24° NNE 20:34:59 10° NNW visible
18 Feb 5.2 22:18:01 22° NNW 22:18:01 22° NNW 22:20:05 10° NNW visible
19 Feb 5.3 17:57:26 10° NNE 17:58:52 11° N 18:00:17 10° NNW visible
19 Feb 4.9 19:40:18 17° NNE 19:41:01 17° NNE 19:44:56 10° N visible
19 Feb 4.8 21:27:09 27° N 21:27:09 27° N 21:30:13 10° NNW visible
19 Feb 5.6 23:14:01 14° NW 23:14:01 14° NW 23:14:56 10° NNW visible
20 Feb 5.2 18:50:01 10° NE 18:52:29 12° NNE 18:54:57 10° N visible
20 Feb 4.7 20:36:18 24° NNE 20:36:18 24° NNE 20:40:13 10° NNW visible
20 Feb 5.1 22:23:09 23° NNW 22:23:09 23° NNW 22:25:19 10° NNW visible
21 Feb 5.4 18:02:39 10° NNE 18:04:05 11° N 18:05:31 10° NNW visible
21 Feb 4.9 19:45:26 17° NE 19:46:15 17° NNE 19:50:10 10° N visible
21 Feb 4.8 21:32:18 28° N 21:32:18 28° N 21:35:27 10° NNW visible
21 Feb 5.5 23:19:09 15° NW 23:19:09 15° NW 23:20:10 10° NNW visible
22 Feb 5.2 18:55:14 10° NE 18:57:43 12° NNE 19:00:11 10° N visible
22 Feb 4.7 20:41:26 25° NNE 20:41:26 25° NNE 20:45:28 10° NNW visible
22 Feb 5.1 22:28:17 23° NNW 22:28:17 23° NNW 22:30:34 10° NNW visible
23 Feb 5.4 18:07:52 10° NNE 18:09:18 11° N 18:10:45 10° NNW visible
23 Feb 5.0 19:50:34 17° NE 19:51:28 17° NNE 19:55:24 10° N visible
23 Feb 4.7 21:37:25 28° N 21:37:25 28° N 21:40:42 10° NNW visible
23 Feb 5.5 23:24:17 16° NW 23:24:17 16° NW 23:25:25 10° NNW visible
